This demonstration page uses our WeatherBlox Daily Observations layout. Learn more.

Left ArrowRight Arrow

Hourly Observations for April 18, 2019

Temp ( °F °C ) Dew Point ( °F °C ) Humidity (%) Winds ( mph kmh ) Pressure ( in mb ) Visibility ( mi km ) Precip ( " mm )
12:15 am 00:15 Clear 42 5.6 35 1.7 76 76 NW 8 13 29.92 1013 10 16 0.00 0.00
12:35 am 00:35 Clear 41 4.8 34 1.2 78 78 NNW 8 13 29.93 1014 10 16 0.00 0.00
12:55 am 00:55 Clear 39 4.1 34 0.9 80 80 NNW 8 13 29.95 1014 10 16 0.00 0.00
1:15 am 01:15 Clear 39 3.7 34 0.9 82 82 NNW 8 13 29.95 1014 10 16 0.00 0.00
1:35 am 01:35 Clear 38 3.5 33 0.7 82 82 NNW 8 13 29.96 1015 10 16 0.00 0.00
1:55 am 01:55 Clear 37 2.8 33 0.3 84 84 WNW 7 11 29.98 1015 10 16 0.00 0.00
2:15 am 02:15 Clear 39 3.8 35 1.5 85 85 W 7 11 29.98 1015 10 16 0.00 0.00
2:35 am 02:35 Clear 39 4 35 1.5 84 84 W 10 17 29.98 1015 10 16 0.00 0.00
2:55 am 02:55 Clear 39 4.1 35 1.6 84 84 W 9 15 30.00 1016 10 16 0.00 0.00
3:15 am 03:15 Clear 40 4.2 35 1.6 83 83 WNW 10 17 30.00 1016 10 16 0.00 0.00
3:35 am 03:35 Clear 38 3.3 34 1 85 85 W 7 11 30.01 1016 10 16 0.00 0.00
3:55 am 03:55 Clear 39 3.9 35 1.5 85 85 WNW 7 11 30.01 1016 10 16 0.00 0.00
4:15 am 04:15 Clear 40 4.3 35 1.8 84 84 WNW 9 15 30.00 1016 10 16 0.00 0.00
4:35 am 04:35 Clear 38 3.4 34 1 84 84 WNW 9 15 30.01 1016 10 16 0.00 0.00
4:55 am 04:55 Partly Cloudy 39 4.1 35 1.6 84 84 WNW 12 19 30.01 1016 10 16 0.00 0.00
5:15 am 05:15 Partly Cloudy 39 4.1 34 1.2 82 82 WNW 14 22 30.00 1016 10 16 0.00 0.00
5:35 am 05:35 Clear 38 3.6 34 0.9 83 83 WNW 10 17 30.00 1016 10 16 0.00 0.00
5:55 am 05:55 Clear 38 3.3 34 1 85 85 NW 10 17 29.99 1016 10 16 0.00 0.00
6:15 am 06:15 Partly Cloudy 39 3.8 34 1 82 82 WNW 12 19 29.99 1016 10 16 0.00 0.00
6:35 am 06:35 Clear 39 3.8 34 1 82 82 WNW 12 19 29.99 1016 10 16 0.00 0.00
6:55 am 06:55 Clear 39 4.1 34 1.1 81 81 WNW 16 26 29.99 1015 10 16 0.00 0.00
7:15 am 07:15 Partly Cloudy 39 4.1 34 1.1 81 81 NW 15 24 30.00 1016 10 16 0.00 0.00
7:35 am 07:35 Sunny 40 4.7 35 1.5 80 80 NW 15 24 29.99 1016 10 16 0.00 0.00
7:55 am 07:55 Partly Cloudy 42 5.5 36 2 78 78 WNW 15 24 29.99 1016 10 16 0.00 0.00
8:15 am 08:15 Partly Cloudy 44 6.5 37 2.5 76 76 NW 15 24 30.00 1016 10 16 0.00 0.00
8:35 am 08:35 Sunny 48 8.8 37 3 67 67 NNW 20 31 29.99 1016 10 16 0.00 0.00
8:55 am 08:55 Sunny 50 10.1 38 3.1 62 62 NW 21 33 29.99 1016 10 16 0.00 0.00
9:15 am 09:15 Sunny 52 11 37 2.9 58 58 NNW 21 33 29.99 1016 10 16 0.00 0.00
9:35 am 09:35 Sunny 53 11.8 37 2.9 55 55 NW 23 37 29.98 1015 10 16 0.00 0.00
9:55 am 09:55 Sunny 55 12.5 37 2.8 52 52 NNW 20 31 29.98 1015 10 16 0.00 0.00
10:15 am 10:15 Sunny 56 13.2 36 2.4 48 48 NNW 26 43 29.97 1015 10 16 0.00 0.00
10:35 am 10:35 Sunny 56 13.5 36 2.1 46 46 NW 22 35 29.97 1015 10 16 0.00 0.00
10:55 am 10:55 Sunny 58 14.2 35 1.9 44 44 NNW 25 41 29.97 1015 10 16 0.00 0.00
11:15 am 11:15 Sunny 58 14.7 35 1.4 41 41 N 23 37 29.96 1015 10 16 0.00 0.00
11:35 am 11:35 Partly Cloudy 60 15.3 33 0.4 36 36 NNW 24 39 29.96 1015 10 16 0.00 0.00
11:55 am 11:55 Partly Cloudy 60 15.3 33 0.3 36 36 NNW 21 33 29.96 1015 10 16 0.00 0.00
12:15 pm 12:15 Mostly Cloudy 62 16.4 32 0 33 33 N 29 46 29.95 1014 10 16 0.00 0.00
12:35 pm 12:35 Mostly Cloudy 55 13 37 2.5 49 49 N 22 35 29.98 1015 10 16 0.00 0.00
12:55 pm 12:55 Partly Cloudy 61 15.9 38 3.6 44 44 N 23 37 29.95 1014 10 16 0.00 0.00
1:15 pm 13:15 Partly Cloudy 61 16.1 35 1.6 38 38 NNW 24 39 29.95 1014 10 16 0.00 0.00
1:35 pm 13:35 Partly Cloudy 62 16.7 31 -0.3 32 32 NNW 29 46 29.94 1014 10 16 0.00 0.00
1:55 pm 13:55 Mostly Cloudy 60 15.6 29 -1.5 31 31 N 26 43 29.94 1014 10 16 0.00 0.00
2:15 pm 14:15 Cloudy 60 15.3 31 -0.5 34 34 NW 25 41 29.95 1014 10 16 0.00 0.00
2:35 pm 14:35 Mostly Cloudy 55 13 41 4.8 58 58 N 29 46 29.97 1015 10 16 0.01 0.25
2:55 pm 14:55 Partly Cloudy 58 14.5 36 2.1 43 43 N 21 33 29.96 1015 10 16 0.01 0.25
3:15 pm 15:15 Sunny 58 14.6 32 0 37 37 N 14 22 29.95 1014 10 16 0.00 0.00
3:35 pm 15:35 Partly Cloudy 60 15.4 30 -1.3 32 32 NW 43 69 29.95 1014 10 16 0.00 0.00
3:55 pm 15:55 Cloudy 56 13.1 34 0.9 44 44 NNW 41 67 30.00 1016 10 16 0.00 0.00
4:15 pm 16:15 Cloudy 55 12.5 33 0.8 45 45 NNW 26 43 29.98 1015 10 16 0.00 0.00
4:35 pm 16:35 Mostly Cloudy 57 13.7 34 1 42 42 NNE 20 31 29.97 1015 10 16 0.00 0.00
4:55 pm 16:55 Partly Cloudy 58 14.6 32 0.1 37 37 NNW 23 37 29.96 1015 10 16 0.00 0.00
5:15 pm 17:15 Partly Cloudy 53 11.5 34 1 49 49 N 40 65 30.02 1017 7 11 0.00 0.00
5:35 pm 17:35 Partly Cloudy 54 12.4 37 2.6 52 52 N 18 30 29.99 1016 10 16 0.00 0.00
5:55 pm 17:55 Partly Cloudy 57 13.8 34 1.2 43 43 N 30 48 30.00 1016 10 16 0.00 0.00
6:15 pm 18:15 Partly Cloudy 54 12.4 36 2.2 50 50 N 15 24 30.01 1016 10 16 0.00 0.00
6:35 pm 18:35 Sunny 55 12.7 34 1.3 46 46 N 21 33 30.01 1016 10 16 0.00 0.00
6:55 pm 18:55 Sunny 55 12.8 32 -0.1 41 41 NNW 18 30 30.02 1016 10 16 0.00 0.00
7:15 pm 19:15 Mostly Cloudy 54 12 32 -0.1 44 44 NNW 28 44 30.04 1017 10 16 0.00 0.00
7:35 pm 19:35 Cloudy 52 11 33 0.8 50 50 N 26 43 30.06 1018 10 16 0.00 0.00
7:55 pm 19:55 Cloudy with Light Rain 50 10.1 37 2.7 60 60 NNW 23 37 30.06 1018 10 16 0.00 0.00
8:15 pm 20:15 Mostly Cloudy 49 9.5 38 3.1 65 65 NNW 14 22 30.07 1018 10 16 0.00 0.00
8:35 pm 20:35 Partly Cloudy 48 9 37 2.7 65 65 N 16 26 30.08 1019 10 16 0.00 0.00
8:55 pm 20:55 Partly Cloudy 47 8.4 37 2.6 67 67 N 10 17 30.10 1019 10 16 0.00 0.00
9:15 pm 21:15 Partly Cloudy 45 7.4 37 2.6 72 72 NNW 8 13 30.13 1020 10 16 0.00 0.00
9:35 pm 21:35 Clear 44 6.9 37 2.5 74 74 NW 7 11 30.14 1021 10 16 0.00 0.00
9:55 pm 21:55 Clear 44 6.4 36 2.1 74 74 NW 7 11 30.14 1021 10 16 0.00 0.00
10:15 pm 22:15 Clear 43 6.3 36 2 74 74 N 8 13 30.16 1021 10 16 0.00 0.00
10:35 pm 22:35 Clear 42 5.7 35 1.9 77 77 NNW 7 11 30.17 1022 10 16 0.00 0.00
10:55 pm 22:55 Clear 41 4.8 35 1.5 79 79 NNW 7 11 30.18 1022 10 16 0.00 0.00
11:15 pm 23:15 Clear 39 4 34 1.2 82 82 NW 8 13 30.19 1022 10 16 0.00 0.00
11:35 pm 23:35 Clear 40 4.2 35 1.5 83 83 WNW 6 9 30.20 1023 10 16 0.00 0.00
11:55 pm 23:55 Clear 38 3.3 34 1.1 86 86 NW 6 9 30.19 1023 10 16 0.00 0.00

Powered by AerisWeather